Weather History for Crockett, TX

Change the Weather History Date:

Monday, December 10, 2012

  Actual Average (KLFK) Record (KLFK)
Temperature  
Mean Temperature 42 °F 51 °F  
Max Temperature 51 °F 62 °F 81 °F (1939)
Min Temperature 32 °F 40 °F 16 °F (1978)
Degree Days  
Heating Degree Days 24 15  
Month to date heating degree days 135  
Since 1 July heating degree days 442  
Cooling Degree Days 0 0  
Month to date cooling degree days 4  
Year to date cooling degree days 2587  
Moisture  
Dew Point 29 °F    
Average Humidity 63    
Maximum Humidity 88    
Minimum Humidity 46    
Precipitation  
Precipitation 0.14 in 0.15 in 3.47 in (1983)
Month to date precipitation 1.53  
Year to date precipitation 46.04  
Snow  
Snow 0.00 in - - ()
Month to date snowfall  
Since 1 July snowfall  
Snow Depth -    
Sea Level Pressure  
Sea Level Pressure 30.08 in    
Wind  
Wind Speed 7 mph (NNW)    
Max Wind Speed 16 mph    
Max Gust Speed 30 mph    
Visibility 10 miles    
Events Rain , Thunderstorm    
T = Trace of Precipitation, MM = Missing Value Source: NWS Daily Summary

Daily Weather History Graph

Daily Weather History Graph

Search for Another Location

Airport:

Trip Planner

Search our weather history database for the weather conditions in past years. The results will help you decide how hot, cold, wet, or windy it might be!

Date:

Astronomy

Dec. 10, 2012 Rise Set
Actual Time 7:10 AM CST 5:19 PM CST
Civil Twilight 6:43 AM CST 5:46 PM CST
Nautical Twilight 6:13 AM CST 6:16 PM CST
Astronomical Twilight 5:43 AM CST 6:45 PM CST
Moon 4:01 AM CST (12/10) 3:03 PM CST (12/10)
Length of Visible Light 11h 02m
Length of Day
10h 09m
Waning Crescent, 10% of the Moon is Illuminated
Dec 10
Waning Crescent
Dec 13
New
Dec 19
First Quarter
Dec 28
Full
Jan 4
Last Quarter

Hourly Weather History & Observations

Time (CST) Temp. Windchill Dew Point Humidity Pressure Visibility Wind Dir Wind Speed Gust Speed Precip Events Conditions
12:15 AM 51.8 °F - 48.2 °F 88% 29.96 in 8.0 mi Calm Calm - N/A Rain , Thunderstorm Light Rain
12:35 AM 51.8 °F - 48.2 °F 88% 29.91 in 3.0 mi NNW 10.4 mph 19.6 mph 0.02 in   Light Drizzle
12:55 AM 51.8 °F - 48.2 °F 88% 29.94 in 7.0 mi Calm Calm - 0.02 in Thunderstorm Mostly Cloudy
1:15 AM 51.8 °F - 48.2 °F 88% 29.95 in 7.0 mi NW 9.2 mph - N/A Thunderstorm Overcast
1:55 AM 50.0 °F - 46.4 °F 87% 29.96 in 2.0 mi NW 9.2 mph - 0.05 in Rain Heavy Rain
2:15 AM 48.2 °F - 44.6 °F 87% 29.96 in 7.0 mi NNW 8.1 mph 18.4 mph 0.04 in   Overcast
2:35 AM 46.4 °F 41.9 °F 42.8 °F 87% 29.94 in 5.0 mi North 9.2 mph - 0.07 in Rain , Thunderstorm Light Rain
2:55 AM 44.6 °F 39.7 °F 39.2 °F 81% 29.96 in 10.0 mi NW 9.2 mph - 0.07 in   Scattered Clouds
3:15 AM 44.6 °F 39.2 °F 37.4 °F 76% 29.98 in 10.0 mi NNW 10.4 mph 19.6 mph N/A   Scattered Clouds
3:35 AM 42.8 °F 36.6 °F 35.6 °F 76% 29.99 in 10.0 mi NNW 11.5 mph 20.7 mph N/A   Overcast
3:55 AM 42.8 °F 37.5 °F 32.0 °F 66% 30.00 in 10.0 mi NNW 9.2 mph - N/A   Overcast
4:15 AM 42.8 °F 36.2 °F 32.0 °F 66% 30.02 in 10.0 mi NNW 12.7 mph 20.7 mph N/A   Overcast
4:35 AM 42.8 °F 35.4 °F 30.2 °F 61% 30.02 in 10.0 mi NNW 15.0 mph 23.0 mph N/A   Overcast
4:55 AM 42.8 °F 35.1 °F 28.4 °F 57% 30.03 in 10.0 mi NNW 16.1 mph 29.9 mph N/A   Overcast
5:15 AM 39.2 °F 32.0 °F 26.6 °F 61% 30.05 in 10.0 mi NW 11.5 mph 24.2 mph N/A   Overcast
5:35 AM 39.2 °F 30.8 °F 23.0 °F 52% 30.07 in 10.0 mi NNW 15.0 mph 23.0 mph N/A   Overcast
5:55 AM 39.2 °F 32.5 °F 24.8 °F 56% 30.08 in 10.0 mi NW 10.4 mph 20.7 mph N/A   Overcast
6:15 AM 39.2 °F 33.6 °F 24.8 °F 56% 30.10 in 10.0 mi NNW 8.1 mph 18.4 mph N/A   Overcast
6:35 AM 39.2 °F 31.6 °F 23.0 °F 52% 30.10 in 10.0 mi NW 12.7 mph 21.9 mph N/A   Overcast
6:55 AM 37.4 °F 32.8 °F 23.0 °F 56% 30.10 in 10.0 mi NNW 5.8 mph 16.1 mph N/A   Overcast
7:15 AM 37.4 °F - 23.0 °F 56% 30.09 in 10.0 mi Calm Calm - N/A   Overcast
8:15 AM 39.2 °F 32.5 °F 21.2 °F 49% 30.11 in 10.0 mi NNW 10.4 mph - N/A   Overcast
8:35 AM 39.2 °F 33.0 °F 21.2 °F 49% 30.12 in 10.0 mi NNW 9.2 mph 17.3 mph N/A   Scattered Clouds
8:55 AM 39.2 °F 37.0 °F 21.2 °F 49% 30.11 in 10.0 mi NNW 3.5 mph 18.4 mph N/A   Clear
9:15 AM 39.2 °F 31.6 °F 23.0 °F 52% 30.12 in 10.0 mi NNW 12.7 mph 19.6 mph N/A   Clear
9:35 AM 41.0 °F 34.3 °F 23.0 °F 49% 30.13 in 10.0 mi NNW 11.5 mph 18.4 mph N/A   Clear
10:15 AM 42.8 °F 41.1 °F 23.0 °F 46% 30.13 in 10.0 mi NNW 3.5 mph - N/A   Clear
10:35 AM 42.8 °F 36.6 °F 24.8 °F 49% 30.13 in 10.0 mi NW 11.5 mph - N/A   Clear
10:55 AM 44.6 °F 38.4 °F 26.6 °F 49% 30.13 in 10.0 mi NW 12.7 mph 18.4 mph N/A   Clear
11:15 AM 44.6 °F 43.1 °F 28.4 °F 53% 30.13 in 10.0 mi NNW 3.5 mph - N/A   Clear
11:35 AM 44.6 °F 39.2 °F 28.4 °F 53% 30.12 in 10.0 mi North 10.4 mph 17.3 mph N/A   Clear
11:55 AM 44.6 °F 38.1 °F 30.2 °F 57% 30.11 in 10.0 mi NNW 13.8 mph 17.3 mph N/A   Clear
12:15 PM 44.6 °F 39.2 °F 30.2 °F 57% 30.11 in 10.0 mi NNW 10.4 mph - N/A   Clear
12:35 PM 46.4 °F 42.4 °F 30.2 °F 53% 30.10 in 10.0 mi NNW 8.1 mph - N/A   Clear
12:55 PM 46.4 °F 41.9 °F 32.0 °F 57% 30.10 in 10.0 mi NW 9.2 mph - N/A   Clear
1:15 PM 46.4 °F 41.9 °F 32.0 °F 57% 30.09 in 10.0 mi NW 9.2 mph - N/A   Clear
1:35 PM 46.4 °F 41.1 °F 32.0 °F 57% 30.08 in 10.0 mi NNW 11.5 mph 18.4 mph N/A   Clear
1:55 PM 46.4 °F 42.4 °F 32.0 °F 57% 30.08 in 10.0 mi WNW 8.1 mph 18.4 mph N/A   Clear
2:15 PM 44.6 °F 39.7 °F 30.2 °F 57% 30.08 in 10.0 mi NW 9.2 mph 17.3 mph N/A   Clear
2:35 PM 46.4 °F 41.1 °F 28.4 °F 50% 30.08 in 10.0 mi NW 11.5 mph 18.4 mph N/A   Clear
2:55 PM 46.4 °F 41.1 °F 28.4 °F 50% 30.08 in 10.0 mi NW 11.5 mph 17.3 mph N/A   Clear
3:15 PM 46.4 °F 41.1 °F 26.6 °F 46% 30.08 in 10.0 mi NW 11.5 mph - N/A   Clear
3:35 PM 44.6 °F 38.8 °F 24.8 °F 46% 30.08 in 10.0 mi NW 11.5 mph 16.1 mph N/A   Clear
3:55 PM 44.6 °F 38.8 °F 24.8 °F 46% 30.08 in 10.0 mi NNW 11.5 mph 20.7 mph N/A   Clear
4:15 PM 44.6 °F 39.7 °F 26.6 °F 49% 30.08 in 10.0 mi NNW 9.2 mph - N/A   Clear
4:55 PM 42.8 °F - 24.8 °F 49% 30.08 in 10.0 mi Calm Calm - N/A   Clear
5:15 PM 41.0 °F - 24.8 °F 53% 30.09 in 10.0 mi Calm Calm - N/A   Clear
5:35 PM 39.2 °F - 24.8 °F 56% 30.09 in 10.0 mi Calm Calm - N/A   Clear
5:55 PM 39.2 °F - 26.6 °F 61% 30.10 in 10.0 mi Calm Calm - N/A   Clear
6:15 PM 37.4 °F - 26.6 °F 65% 30.10 in 10.0 mi Calm Calm - N/A   Clear
6:35 PM 37.4 °F - 26.6 °F 65% 30.10 in 10.0 mi Calm Calm - N/A   Clear
6:55 PM 37.4 °F - 26.6 °F 65% 30.11 in 10.0 mi Calm Calm - N/A   Clear
7:15 PM 37.4 °F - 26.6 °F 65% 30.12 in 10.0 mi Calm Calm - N/A   Clear
7:35 PM 37.4 °F - 26.6 °F 65% 30.13 in 10.0 mi Calm Calm - N/A   Clear
7:55 PM 37.4 °F - 26.6 °F 65% 30.13 in 10.0 mi Calm Calm - N/A   Clear
8:15 PM 35.6 °F - 26.6 °F 70% 30.14 in 10.0 mi Calm Calm - N/A   Clear
8:35 PM 35.6 °F - 26.6 °F 70% 30.15 in 10.0 mi Calm Calm - N/A   Clear
8:55 PM 33.8 °F - 28.4 °F 81% 30.15 in 10.0 mi Calm Calm - N/A   Clear
9:15 PM 33.8 °F - 28.4 °F 81% 30.15 in 10.0 mi Calm Calm - N/A   Clear
9:35 PM 33.8 °F - 28.4 °F 81% 30.15 in 10.0 mi Calm Calm - N/A   Clear
9:55 PM 33.8 °F - 28.4 °F 81% 30.15 in 10.0 mi Calm Calm - N/A   Clear
10:15 PM 32.0 °F - 28.4 °F 87% 30.15 in 10.0 mi Calm Calm - N/A   Clear
10:35 PM 33.8 °F - 26.6 °F 75% 30.14 in 10.0 mi Calm Calm - N/A   Clear
11:15 PM 33.8 °F - 26.6 °F 75% 30.15 in 10.0 mi Calm Calm - N/A   Clear
11:35 PM 35.6 °F - 24.8 °F 65% 30.15 in 10.0 mi Calm Calm - N/A   Clear
11:55 PM 33.8 °F - 23.0 °F 65% 30.15 in 10.0 mi Calm Calm - N/A   Clear